"Sample Date","Sample Time","Sample Value","Units","Flow Rate","Number Channels","Micron Size 0","Counts/Channel 0","Micron Size 1","Counts/Channel 1","Micron Size 2","Counts/Channel 2","Micron Size 3","Counts/Channel 3","Micron Size 4","Counts/Channel 4","Micron Size 5","Counts/Channel 5","Micron Size 6","Counts/Channel 6","Micron Size 7","Counts/Channel 7","Micron Size 8","Counts/Channel 8","Micron Size 9","Counts/Channel 9","Micron Size 10","Counts/Channel 10","Micron Size 11","Counts/Channel 11","Micron Size 12","Counts/Channel 12","Micron Size 13","Counts/Channel 13","Micron Size 14","Counts/Channel 14","Micron Size 15","Counts/Channel 15","Micron Size 16","Counts/Channel 16","Micron Size 17","Counts/Channel 17","Micron Size 18","Counts/Channel 18","Micron Size 19","Counts/Channel 19","Micron Size 20","Counts/Channel 20","Micron Size 21","Counts/Channel 21","Micron Size 22","Counts/Channel 22","Micron Size 23","Counts/Channel 23","Micron Size 24","Counts/Channel 24","Micron Size 25","Counts/Channel 25","Micron Size 26","Counts/Channel 26","Micron Size 27","Counts/Channel 27","Micron Size 28","Counts/Channel 28","Micron Size 29","Counts/Channel 29","Micron Size 30","Counts/Channel 30","Micron Size 31","Counts/Channel 31"
"05/11/08","16:00:03",7248.000,"cc",28289.352,6,0.100,6270.000,0.200,887.000,0.300,80.000,0.500,11.000,1.000,0,5.000,0
"05/11/08","16:00:09",8254.000,"cc",28286.039,6,0.100,7164.000,0.200,995.000,0.300,74.000,0.500,21.000,1.000,0,5.000,0
"05/11/08","16:00:15",12775.000,"cc",28208.711,6,0.100,11129.000,0.200,1525.000,0.300,102.000,0.500,17.000,1.000,2.000,5.000,0
"05/11/08","16:00:21",8432.000,"cc",28321.865,6,0.100,7281.000,0.200,1069.000,0.300,71.000,0.500,11.000,1.000,0,5.000,0
"05/11/08","16:00:27",8724.000,"cc",28346.920,6,0.100,7514.000,0.200,1131.000,0.300,65.000,0.500,14.000,1.000,0,5.000,0
"05/11/08","16:00:33",10829.000,"cc",28360.508,6,0.100,9342.000,0.200,1395.000,0.300,78.000,0.500,11.000,1.000,3.000,5.000,0
"05/11/08","16:00:39",9141.000,"cc",28375.797,6,0.100,7932.000,0.200,1129.000,0.300,62.000,0.500,14.000,1.000,4.000,5.000,0
"05/11/08","16:00:45",8423.000,"cc",28249.281,6,0.100,7237.000,0.200,1100.000,0.300,71.000,0.500,15.000,1.000,0,5.000,0
"05/11/08","16:00:51",8616.000,"cc",28290.992,6,0.100,7429.000,0.200,1114.000,0.300,64.000,0.500,8.000,1.000,1.000,5.000,0
"05/11/08","16:00:57",10673.000,"cc",28303.682,6,0.100,9333.000,0.200,1260.000,0.300,73.000,0.500,7.000,1.000,0,5.000,0
"05/11/08","16:01:03",7904.000,"cc",28307.367,6,0.100,6782.000,0.200,1059.000,0.300,54.000,0.500,8.000,1.000,1.000,5.000,0
"05/11/08","16:01:09",9640.000,"cc",28352.647,6,0.100,8334.000,0.200,1219.000,0.300,71.000,0.500,15.000,1.000,1.000,5.000,0
"05/11/08","16:01:15",7912.000,"cc",28380.772,6,0.100,6831.000,0.200,1011.000,0.300,55.000,0.500,14.000,1.000,1.000,5.000,0
"05/11/08","16:01:21",10342.000,"cc",28339.922,6,0.100,9022.000,0.200,1246.000,0.300,69.000,0.500,5.000,1.000,0,5.000,0
"05/11/08","16:01:27",10628.000,"cc",28314.518,6,0.100,9197.000,0.200,1339.000,0.300,78.000,0.500,13.000,1.000,1.000,5.000,0
"05/11/08","16:01:33",9124.000,"cc",28305.772,6,0.100,7938.000,0.200,1110.000,0.300,62.000,0.500,13.000,1.000,1.000,5.000,0
"05/11/08","16:01:39",8685.000,"cc",28280.072,6,0.100,7552.000,0.200,1044.000,0.300,77.000,0.500,12.000,1.000,0,5.000,0
"05/11/08","16:01:45",11537.000,"cc",28344.039,6,0.100,10083.000,0.200,1363.000,0.300,78.000,0.500,13.000,1.000,0,5.000,0
"05/11/08","16:01:51",9422.000,"cc",28318.467,6,0.100,8207.000,0.200,1120.000,0.300,81.000,0.500,14.000,1.000,0,5.000,0
"05/11/08","16:01:57",10735.000,"cc",28328.375,6,0.100,9295.000,0.200,1320.000,0.300,102.000,0.500,18.000,1.000,0,5.000,0
"05/11/08","16:02:03",14894.000,"cc",28339.625,6,0.100,12937.000,0.200,1810.000,0.300,125.000,0.500,21.000,1.000,1.000,5.000,0
"05/11/08","16:02:09",10746.000,"cc",28326.332,6,0.100,9303.000,0.200,1336.000,0.300,87.000,0.500,19.000,1.000,1.000,5.000,0
"05/11/08","16:02:15",9278.000,"cc",28304.119,6,0.100,8013.000,0.200,1181.000,0.300,65.000,0.500,17.000,1.000,2.000,5.000,0
"05/11/08","16:02:21",8123.000,"cc",28320.262,6,0.100,6996.000,0.200,1026.000,0.300,85.000,0.500,15.000,1.000,1.000,5.000,0
"05/11/08","16:02:27",8671.000,"cc",28301.969,6,0.100,7525.000,0.200,1043.000,0.300,81.000,0.500,21.000,1.000,1.000,5.000,0
"05/11/08","16:02:33",6120.000,"cc",28252.848,6,0.100,5203.000,0.200,851.000,0.300,56.000,0.500,9.000,1.000,1.000,5.000,0
"05/11/08","16:02:39",9747.000,"cc",28366.563,6,0.100,8470.000,0.200,1174.000,0.300,87.000,0.500,15.000,1.000,1.000,5.000,0
"05/11/08","16:02:45",9750.000,"cc",28348.148,6,0.100,8420.000,0.200,1227.000,0.300,88.000,0.500,14.000,1.000,1.000,5.000,0
"05/11/08","16:02:51",12067.000,"cc",28332.389,6,0.100,10544.000,0.200,1443.000,0.300,69.000,0.500,11.000,1.000,0,5.000,0
"05/11/08","16:02:57",14780.000,"cc",28352.430,6,0.100,12894.000,0.200,1778.000,0.300,95.000,0.500,13.000,1.000,0,5.000,0
"05/11/08","16:03:03",11997.000,"cc",28281.395,6,0.100,10390.000,0.200,1503.000,0.300,91.000,0.500,13.000,1.000,0,5.000,0
"05/11/08","16:03:09",10198.000,"cc",28315.594,6,0.100,8903.000,0.200,1221.000,0.300,57.000,0.500,15.000,1.000,2.000,5.000,0
"05/11/08","16:03:15",9967.000,"cc",28268.816,6,0.100,8611.000,0.200,1266.000,0.300,81.000,0.500,9.000,1.000,0,5.000,0
"05/11/08","16:03:21",7881.000,"cc",28320.775,6,0.100,6825.000,0.200,1005.000,0.300,44.000,0.500,5.000,1.000,2.000,5.000,0
"05/11/08","16:03:27",9116.000,"cc",28367.426,6,0.100,7944.000,0.200,1103.000,0.300,54.000,0.500,14.000,1.000,1.000,5.000,0
"05/11/08","16:03:33",10089.000,"cc",28304.596,6,0.100,8790.000,0.200,1219.000,0.300,65.000,0.500,15.000,1.000,0,5.000,0
"05/11/08","16:03:39",10708.000,"cc",28361.166,6,0.100,9353.000,0.200,1269.000,0.300,73.000,0.500,12.000,1.000,1.000,5.000,0
"05/11/08","16:03:45",10980.000,"cc",28371.244,6,0.100,9603.000,0.200,1281.000,0.300,83.000,0.500,12.000,1.000,1.000,5.000,0
"05/11/08","16:03:51",12551.000,"cc",28410.797,6,0.100,10953.000,0.200,1505.000,0.300,83.000,0.500,10.000,1.000,0,5.000,0
"05/11/08","16:03:57",20028.000,"cc",28334.897,6,0.100,17531.000,0.200,2401.000,0.300,80.000,0.500,15.000,1.000,1.000,5.000,0
"05/11/08","16:04:03",14513.000,"cc",28253.072,6,0.100,12643.000,0.200,1793.000,0.300,66.000,0.500,11.000,1.000,0,5.000,0
"05/11/08","16:04:09",12776.000,"cc",28227.100,6,0.100,11197.000,0.200,1513.000,0.300,62.000,0.500,3.000,1.000,1.000,5.000,0
"05/11/08","16:04:15",11324.000,"cc",28252.750,6,0.100,9854.000,0.200,1390.000,0.300,71.000,0.500,9.000,1.000,0,5.000,0
"05/11/08","16:04:21",11705.000,"cc",28373.041,6,0.100,10201.000,0.200,1421.000,0.300,74.000,0.500,9.000,1.000,0,5.000,0
"05/11/08","16:04:27",24436.000,"cc",28359.830,6,0.100,21482.000,0.200,2822.000,0.300,112.000,0.500,18.000,1.000,2.000,5.000,0
"05/11/08","16:04:33",17109.000,"cc",28322.664,6,0.100,15022.000,0.200,1994.000,0.300,80.000,0.500,13.000,1.000,0,5.000,0
"05/11/08","16:04:39",12296.000,"cc",28399.451,6,0.100,10778.000,0.200,1436.000,0.300,67.000,0.500,14.000,1.000,1.000,5.000,0
"05/11/08","16:04:45",7873.000,"cc",28290.904,6,0.100,6830.000,0.200,978.000,0.300,55.000,0.500,8.000,1.000,2.000,5.000,0
"05/11/08","16:04:51",9524.000,"cc",28291.723,6,0.100,8279.000,0.200,1178.000,0.300,58.000,0.500,6.000,1.000,3.000,5.000,0
"05/11/08","16:04:57",14519.000,"cc",28201.391,6,0.100,12655.000,0.200,1763.000,0.300,90.000,0.500,11.000,1.000,0,5.000,0
"05/11/08","16:05:03",13853.000,"cc",28323.881,6,0.100,12143.000,0.200,1637.000,0.300,61.000,0.500,12.000,1.000,0,5.000,0
"05/11/08","16:05:09",10818.000,"cc",28348.969,6,0.100,9470.000,0.200,1266.000,0.300,70.000,0.500,11.000,1.000,1.000,5.000,0
"05/11/08","16:05:15",14449.000,"cc",28339.176,6,0.100,12663.000,0.200,1693.000,0.300,82.000,0.500,11.000,1.000,0,5.000,0
"05/11/08","16:05:21",18829.000,"cc",28403.568,6,0.100,16515.000,0.200,2210.000,0.300,95.000,0.500,9.000,1.000,0,5.000,0
"05/11/08","16:05:27",13458.000,"cc",28302.879,6,0.100,11748.000,0.200,1643.000,0.300,59.000,0.500,8.000,1.000,0,5.000,0
"05/11/08","16:05:33",16695.000,"cc",28299.184,6,0.100,14772.000,0.200,1851.000,0.300,67.000,0.500,5.000,1.000,0,5.000,0
"05/11/08","16:05:39",20520.000,"cc",28348.053,6,0.100,18117.000,0.200,2318.000,0.300,80.000,0.500,5.000,1.000,0,5.000,0
"05/11/08","16:05:45",15412.000,"cc",28303.818,6,0.100,13542.000,0.200,1784.000,0.300,77.000,0.500,8.000,1.000,1.000,5.000,0
"05/11/08","16:05:51",13400.000,"cc",28292.098,6,0.100,11802.000,0.200,1517.000,0.300,72.000,0.500,7.000,1.000,2.000,5.000,0
"05/11/08","16:05:57",20697.000,"cc",28342.232,6,0.100,18229.000,0.200,2362.000,0.300,99.000,0.500,7.000,1.000,0,5.000,0
"05/11/08","16:06:03",24932.000,"cc",28323.045,6,0.100,21992.000,0.200,2800.000,0.300,131.000,0.500,8.000,1.000,1.000,5.000,0
"05/11/08","16:06:09",25942.000,"cc",28328.697,6,0.100,22741.000,0.200,3050.000,0.300,130.000,0.500,18.000,1.000,3.000,5.000,0
"05/11/08","16:06:15",20227.000,"cc",28273.666,6,0.100,17698.000,0.200,2418.000,0.300,98.000,0.500,13.000,1.000,0,5.000,0
"05/11/08","16:06:21",20700.000,"cc",28243.930,6,0.100,18072.000,0.200,2487.000,0.300,128.000,0.500,12.000,1.000,1.000,5.000,0
"05/11/08","16:06:27",19892.000,"cc",28273.174,6,0.100,17467.000,0.200,2298.000,0.300,113.000,0.500,14.000,1.000,0,5.000,0
"05/11/08","16:06:33",17523.000,"cc",28290.709,6,0.100,15326.000,0.200,2093.000,0.300,91.000,0.500,12.000,1.000,1.000,5.000,0
"05/11/08","16:06:39",13529.000,"cc",28324.199,6,0.100,11858.000,0.200,1597.000,0.300,66.000,0.500,8.000,1.000,0,5.000,0
"05/11/08","16:06:45",19475.000,"cc",28362.945,6,0.100,17016.000,0.200,2333.000,0.300,111.000,0.500,11.000,1.000,4.000,5.000,0
"05/11/08","16:06:51",22299.000,"cc",28308.973,6,0.100,19529.000,0.200,2654.000,0.300,102.000,0.500,14.000,1.000,0,5.000,0
"05/11/08","16:06:57",16059.000,"cc",28349.121,6,0.100,14037.000,0.200,1929.000,0.300,82.000,0.500,10.000,1.000,1.000,5.000,0
"05/11/08","16:07:03",13408.000,"cc",28304.867,6,0.100,11685.000,0.200,1629.000,0.300,82.000,0.500,12.000,1.000,0,5.000,0
"05/11/08","16:07:09",12837.000,"cc",28292.779,6,0.100,11129.000,0.200,1613.000,0.300,86.000,0.500,9.000,1.000,0,5.000,0
"05/11/08","16:07:15",16059.000,"cc",28291.022,6,0.100,14041.000,0.200,1911.000,0.300,93.000,0.500,13.000,1.000,1.000,5.000,0
"05/11/08","16:07:21",10956.000,"cc",28312.217,6,0.100,9550.000,0.200,1354.000,0.300,50.000,0.500,2.000,1.000,0,5.000,0
"05/11/08","16:07:27",14207.000,"cc",28357.270,6,0.100,12424.000,0.200,1693.000,0.300,77.000,0.500,13.000,1.000,0,5.000,0
"05/11/08","16:07:33",19051.000,"cc",28323.930,6,0.100,16699.000,0.200,2241.000,0.300,101.000,0.500,10.000,1.000,0,5.000,0
"05/11/08","16:07:39",23762.000,"cc",28333.387,6,0.100,20788.000,0.200,2868.000,0.300,91.000,0.500,14.000,1.000,1.000,5.000,0
"05/11/08","16:07:45",22703.000,"cc",28291.756,6,0.100,19917.000,0.200,2659.000,0.300,114.000,0.500,12.000,1.000,1.000,5.000,0
"05/11/08","16:07:51",21010.000,"cc",28341.727,6,0.100,18401.000,0.200,2480.000,0.300,109.000,0.500,19.000,1.000,1.000,5.000,0
"05/11/08","16:07:57",15205.000,"cc",28365.662,6,0.100,13306.000,0.200,1792.000,0.300,91.000,0.500,16.000,1.000,0,5.000,0
"05/11/08","16:08:03",17346.000,"cc",28291.992,6,0.100,15214.000,0.200,2018.000,0.300,99.000,0.500,15.000,1.000,0,5.000,0
"05/11/08","16:08:09",11950.000,"cc",28376.363,6,0.100,10446.000,0.200,1432.000,0.300,63.000,0.500,9.000,1.000,0,5.000,0
"05/11/08","16:08:15",13381.000,"cc",28296.725,6,0.100,11658.000,0.200,1629.000,0.300,77.000,0.500,15.000,1.000,2.000,5.000,0
"05/11/08","16:08:21",9669.000,"cc",28326.449,6,0.100,8378.000,0.200,1212.000,0.300,71.000,0.500,8.000,1.000,0,5.000,0
"05/11/08","16:08:27",9606.000,"cc",28321.020,6,0.100,8343.000,0.200,1189.000,0.300,63.000,0.500,10.000,1.000,1.000,5.000,0
"05/11/08","16:08:33",15798.000,"cc",28305.338,6,0.100,13830.000,0.200,1871.000,0.300,86.000,0.500,10.000,1.000,1.000,5.000,0
"05/11/08","16:08:39",9162.000,"cc",28362.731,6,0.100,7901.000,0.200,1188.000,0.300,64.000,0.500,8.000,1.000,1.000,5.000,0
"05/11/08","16:08:45",8998.000,"cc",28356.885,6,0.100,7824.000,0.200,1082.000,0.300,81.000,0.500,11.000,1.000,0,5.000,0
"05/11/08","16:08:51",8908.000,"cc",28264.844,6,0.100,7777.000,0.200,1052.000,0.300,70.000,0.500,8.000,1.000,1.000,5.000,0
"05/11/08","16:08:57",5742.000,"cc",28267.734,6,0.100,4930.000,0.200,756.000,0.300,45.000,0.500,11.000,1.000,0,5.000,0
"05/11/08","16:09:03",11540.000,"cc",28311.475,6,0.100,10156.000,0.200,1307.000,0.300,69.000,0.500,7.000,1.000,1.000,5.000,0
"05/11/08","16:09:09",11399.000,"cc",28303.041,6,0.100,9912.000,0.200,1412.000,0.300,70.000,0.500,5.000,1.000,0,5.000,0
"05/11/08","16:09:15",10701.000,"cc",28284.373,6,0.100,9358.000,0.200,1276.000,0.300,56.000,0.500,11.000,1.000,0,5.000,0
"05/11/08","16:09:21",14897.000,"cc",28321.607,6,0.100,13131.000,0.200,1659.000,0.300,94.000,0.500,12.000,1.000,1.000,5.000,0
"05/11/08","16:09:27",15019.000,"cc",28338.533,6,0.100,13160.000,0.200,1781.000,0.300,71.000,0.500,6.000,1.000,1.000,5.000,0
"05/11/08","16:09:33",19736.000,"cc",28385.518,6,0.100,17370.000,0.200,2247.000,0.300,97.000,0.500,22.000,1.000,0,5.000,0
"05/11/08","16:09:39",28637.000,"cc",28318.885,6,0.100,25329.000,0.200,3177.000,0.300,113.000,0.500,17.000,1.000,1.000,5.000,0
"05/11/08","16:09:45",15690.000,"cc",28240.322,6,0.100,13687.000,0.200,1898.000,0.300,95.000,0.500,10.000,1.000,0,5.000,0
"05/11/08","16:09:51",19218.000,"cc",28259.879,6,0.100,16927.000,0.200,2190.000,0.300,87.000,0.500,13.000,1.000,1.000,5.000,0
"05/11/08","16:09:57",16744.000,"cc",28299.227,6,0.100,14711.000,0.200,1946.000,0.300,77.000,0.500,10.000,1.000,0,5.000,0
"05/11/08","16:10:03",14187.000,"cc",28357.182,6,0.100,12508.000,0.200,1578.000,0.300,83.000,0.500,18.000,1.000,0,5.000,0
"05/11/08","16:10:09",17802.000,"cc",28344.268,6,0.100,15636.000,0.200,2076.000,0.300,80.000,0.500,10.000,1.000,0,5.000,0
"05/11/08","16:10:15",14064.000,"cc",28288.434,6,0.100,12324.000,0.200,1655.000,0.300,71.000,0.500,12.000,1.000,2.000,5.000,0
"05/11/08","16:10:21",8152.000,"cc",28307.096,6,0.100,7124.000,0.200,966.000,0.300,56.000,0.500,6.000,1.000,0,5.000,0
"05/11/08","16:10:27",11760.000,"cc",28283.705,6,0.100,10318.000,0.200,1367.000,0.300,67.000,0.500,8.000,1.000,0,5.000,0
"05/11/08","16:10:33",9616.000,"cc",28280.553,6,0.100,8504.000,0.200,1050.000,0.300,50.000,0.500,12.000,1.000,0,5.000,0
"05/11/08","16:10:39",15427.000,"cc",28317.373,6,0.100,13570.000,0.200,1775.000,0.300,68.000,0.500,13.000,1.000,1.000,5.000,0
"05/11/08","16:10:45",16495.000,"cc",28394.145,6,0.100,14575.000,0.200,1831.000,0.300,78.000,0.500,10.000,1.000,1.000,5.000,0
"05/11/08","16:10:51",20769.000,"cc",28263.041,6,0.100,18319.000,0.200,2353.000,0.300,89.000,0.500,8.000,1.000,0,5.000,0
"05/11/08","16:10:57",29620.000,"cc",28296.600,6,0.100,26191.000,0.200,3302.000,0.300,111.000,0.500,16.000,1.000,0,5.000,0
"05/11/08","16:11:03",25983.000,"cc",28346.383,6,0.100,23021.000,0.200,2840.000,0.300,100.000,0.500,22.000,1.000,0,5.000,0
"05/11/08","16:11:09",20730.000,"cc",28384.227,6,0.100,18328.000,0.200,2291.000,0.300,100.000,0.500,10.000,1.000,1.000,5.000,0
"05/11/08","16:11:15",19559.000,"cc",28256.543,6,0.100,17200.000,0.200,2261.000,0.300,84.000,0.500,14.000,1.000,0,5.000,0
"05/11/08","16:11:21",17022.000,"cc",28308.133,6,0.100,14926.000,0.200,1974.000,0.300,108.000,0.500,14.000,1.000,0,5.000,0
"05/11/08","16:11:27",11718.000,"cc",28354.441,6,0.100,10351.000,0.200,1279.000,0.300,79.000,0.500,8.000,1.000,1.000,5.000,0
"05/11/08","16:11:33",21254.000,"cc",28314.775,6,0.100,18757.000,0.200,2392.000,0.300,99.000,0.500,6.000,1.000,0,5.000,0
"05/11/08","16:11:39",16018.000,"cc",28282.305,6,0.100,14116.000,0.200,1819.000,0.300,76.000,0.500,7.000,1.000,0,5.000,0
"05/11/08","16:11:45",14424.000,"cc",28326.873,6,0.100,12629.000,0.200,1723.000,0.300,66.000,0.500,6.000,1.000,0,5.000,0
"05/11/08","16:11:51",14293.000,"cc",28275.883,6,0.100,12613.000,0.200,1596.000,0.300,76.000,0.500,7.000,1.000,1.000,5.000,0
"05/11/08","16:11:57",16917.000,"cc",28293.285,6,0.100,14967.000,0.200,1835.000,0.300,105.000,0.500,10.000,1.000,0,5.000,0
"05/11/08","16:12:03",16060.000,"cc",28381.227,6,0.100,14061.000,0.200,1915.000,0.300,77.000,0.500,7.000,1.000,0,5.000,0
"05/11/08","16:12:09",16904.000,"cc",28309.803,6,0.100,14831.000,0.200,1980.000,0.300,79.000,0.500,13.000,1.000,1.000,5.000,0
"05/11/08","16:12:15",18024.000,"cc",28283.258,6,0.100,15811.000,0.200,2113.000,0.300,91.000,0.500,9.000,1.000,0,5.000,0
"05/11/08","16:12:21",19341.000,"cc",28314.916,6,0.100,16995.000,0.200,2233.000,0.300,94.000,0.500,19.000,1.000,0,5.000,0
"05/11/08","16:12:27",19608.000,"cc",28319.197,6,0.100,17280.000,0.200,2229.000,0.300,79.000,0.500,18.000,1.000,2.000,5.000,0
"05/11/08","16:12:33",22230.000,"cc",28295.856,6,0.100,19596.000,0.200,2528.000,0.300,91.000,0.500,15.000,1.000,0,5.000,0
"05/11/08","16:12:39",23336.000,"cc",28328.818,6,0.100,20617.000,0.200,2596.000,0.300,108.000,0.500,15.000,1.000,0,5.000,0
"05/11/08","16:12:45",28511.000,"cc",28354.586,6,0.100,25216.000,0.200,3187.000,0.300,97.000,0.500,11.000,1.000,0,5.000,0
"05/11/08","16:12:51",21589.000,"cc",28339.584,6,0.100,19102.000,0.200,2367.000,0.300,108.000,0.500,11.000,1.000,1.000,5.000,0
"05/11/08","16:12:57",21017.000,"cc",28300.436,6,0.100,18488.000,0.200,2412.000,0.300,102.000,0.500,15.000,1.000,0,5.000,0
"05/11/08","16:13:03",20154.000,"cc",28341.715,6,0.100,17819.000,0.200,2244.000,0.300,77.000,0.500,14.000,1.000,0,5.000,0
"05/11/08","16:13:09",15227.000,"cc",28319.248,6,0.100,13390.000,0.200,1740.000,0.300,82.000,0.500,15.000,1.000,0,5.000,0
"05/11/08","16:13:15",13313.000,"cc",28308.477,6,0.100,11647.000,0.200,1559.000,0.300,100.000,0.500,5.000,1.000,2.000,5.000,0
"05/11/08","16:13:21",13348.000,"cc",28328.676,6,0.100,11705.000,0.200,1567.000,0.300,65.000,0.500,11.000,1.000,0,5.000,0
"05/11/08","16:13:27",9190.000,"cc",28319.828,6,0.100,8023.000,0.200,1100.000,0.300,57.000,0.500,9.000,1.000,1.000,5.000,0
"05/11/08","16:13:33",9444.000,"cc",28265.504,6,0.100,8271.000,0.200,1107.000,0.300,61.000,0.500,5.000,1.000,0,5.000,0
"05/11/08","16:13:39",9231.000,"cc",28251.393,6,0.100,8050.000,0.200,1113.000,0.300,55.000,0.500,12.000,1.000,1.000,5.000,0
"05/11/08","16:13:45",11682.000,"cc",28337.436,6,0.100,10254.000,0.200,1338.000,0.300,79.000,0.500,10.000,1.000,1.000,5.000,0
"05/11/08","16:13:51",7707.000,"cc",28332.992,6,0.100,6720.000,0.200,918.000,0.300,64.000,0.500,5.000,1.000,0,5.000,0
"05/11/08","16:13:57",8775.000,"cc",28343.875,6,0.100,7693.000,0.200,1012.000,0.300,61.000,0.500,9.000,1.000,0,5.000,0
"05/11/08","16:14:03",6777.000,"cc",28293.854,6,0.100,5966.000,0.200,745.000,0.300,54.000,0.500,12.000,1.000,0,5.000,0
"05/11/08","16:14:09",7363.000,"cc",28304.713,6,0.100,6372.000,0.200,927.000,0.300,57.000,0.500,7.000,1.000,0,5.000,0
"05/11/08","16:14:15",14215.000,"cc",28333.658,6,0.100,12389.000,0.200,1720.000,0.300,92.000,0.500,14.000,1.000,0,5.000,0
"05/11/08","16:14:21",16020.000,"cc",28258.481,6,0.100,14013.000,0.200,1870.000,0.300,117.000,0.500,20.000,1.000,0,5.000,0
"05/11/08","16:14:27",8367.000,"cc",28371.258,6,0.100,7270.000,0.200,1012.000,0.300,72.000,0.500,13.000,1.000,0,5.000,0
"05/11/08","16:14:33",7079.000,"cc",28298.100,6,0.100,6098.000,0.200,897.000,0.300,67.000,0.500,16.000,1.000,1.000,5.000,0
"05/11/08","16:14:39",11321.000,"cc",28335.795,6,0.100,9910.000,0.200,1330.000,0.300,65.000,0.500,15.000,1.000,1.000,5.000,0
"05/11/08","16:14:45",11039.000,"cc",28308.748,6,0.100,9709.000,0.200,1257.000,0.300,62.000,0.500,10.000,1.000,1.000,5.000,0
"05/11/08","16:14:51",12815.000,"cc",28265.772,6,0.100,11227.000,0.200,1514.000,0.300,68.000,0.500,6.000,1.000,0,5.000,0
"05/11/08","16:14:57",7840.000,"cc",28318.867,6,0.100,6836.000,0.200,945.000,0.300,52.000,0.500,7.000,1.000,0,5.000,0
"05/11/08","16:15:03",10446.000,"cc",28364.537,6,0.100,9095.000,0.200,1246.000,0.300,90.000,0.500,14.000,1.000,1.000,5.000,0
"05/11/08","16:15:09",6217.000,"cc",28258.248,6,0.100,5406.000,0.200,751.000,0.300,45.000,0.500,15.000,1.000,0,5.000,0
"05/11/08","16:15:15",8642.000,"cc",28360.541,6,0.100,7504.000,0.200,1061.000,0.300,67.000,0.500,10.000,1.000,0,5.000,0
"05/11/08","16:15:21",8769.000,"cc",28340.113,6,0.100,7613.000,0.200,1065.000,0.300,78.000,0.500,12.000,1.000,1.000,5.000,0
"05/11/08","16:15:27",13858.000,"cc",28346.150,6,0.100,12182.000,0.200,1566.000,0.300,93.000,0.500,17.000,1.000,0,5.000,0
"05/11/08","16:15:33",11378.000,"cc",28351.451,6,0.100,9925.000,0.200,1365.000,0.300,76.000,0.500,12.000,1.000,0,5.000,0
"05/11/08","16:15:39",16226.000,"cc",28205.365,6,0.100,14287.000,0.200,1842.000,0.300,79.000,0.500,17.000,1.000,1.000,5.000,0
"05/11/08","16:15:45",17245.000,"cc",28316.482,6,0.100,15133.000,0.200,2012.000,0.300,88.000,0.500,12.000,1.000,0,5.000,0
"05/11/08","16:15:51",10311.000,"cc",28363.086,6,0.100,9021.000,0.200,1219.000,0.300,57.000,0.500,14.000,1.000,0,5.000,0
"05/11/08","16:15:57",13746.000,"cc",28302.127,6,0.100,12032.000,0.200,1614.000,0.300,76.000,0.500,22.000,1.000,2.000,5.000,0
"05/11/08","16:16:03",19276.000,"cc",28337.799,6,0.100,16978.000,0.200,2181.000,0.300,103.000,0.500,14.000,1.000,0,5.000,0
"05/11/08","16:16:09",9150.000,"cc",28350.975,6,0.100,7943.000,0.200,1142.000,0.300,57.000,0.500,7.000,1.000,1.000,5.000,0
"05/11/08","16:16:15",6956.000,"cc",28298.035,6,0.100,6071.000,0.200,825.000,0.300,51.000,0.500,8.000,1.000,1.000,5.000,0
"05/11/08","16:16:21",11151.000,"cc",28266.188,6,0.100,9810.000,0.200,1269.000,0.300,55.000,0.500,17.000,1.000,0,5.000,0
"05/11/08","16:16:27",9224.000,"cc",28256.928,6,0.100,8077.000,0.200,1076.000,0.300,60.000,0.500,11.000,1.000,0,5.000,0
"05/11/08","16:16:33",9786.000,"cc",28368.404,6,0.100,8577.000,0.200,1152.000,0.300,45.000,0.500,12.000,1.000,0,5.000,0
"05/11/08","16:16:39",11391.000,"cc",28379.402,6,0.100,10004.000,0.200,1301.000,0.300,74.000,0.500,11.000,1.000,1.000,5.000,0
"05/11/08","16:16:45",12368.000,"cc",28335.635,6,0.100,10915.000,0.200,1389.000,0.300,59.000,0.500,5.000,1.000,0,5.000,0
"05/11/08","16:16:51",12741.000,"cc",28266.647,6,0.100,11188.000,0.200,1471.000,0.300,73.000,0.500,8.000,1.000,1.000,5.000,0
"05/11/08","16:16:57",9552.000,"cc",28300.523,6,0.100,8356.000,0.200,1121.000,0.300,65.000,0.500,10.000,1.000,0,5.000,0
"05/11/08","16:17:03",9147.000,"cc",28277.803,6,0.100,8083.000,0.200,1009.000,0.300,45.000,0.500,10.000,1.000,0,5.000,0
"05/11/08","16:17:09",7886.000,"cc",28277.617,6,0.100,6964.000,0.200,861.000,0.300,52.000,0.500,9.000,1.000,0,5.000,0
"05/11/08","16:17:15",12587.000,"cc",28392.195,6,0.100,11063.000,0.200,1442.000,0.300,69.000,0.500,13.000,1.000,0,5.000,0
"05/11/08","16:17:21",12919.000,"cc",28362.397,6,0.100,11375.000,0.200,1468.000,0.300,66.000,0.500,8.000,1.000,2.000,5.000,0
"05/11/08","16:17:27",15169.000,"cc",28335.844,6,0.100,13340.000,0.200,1742.000,0.300,75.000,0.500,12.000,1.000,0,5.000,0
"05/11/08","16:17:33",6789.000,"cc",28282.354,6,0.100,5887.000,0.200,835.000,0.300,51.000,0.500,15.000,1.000,1.000,5.000,0
"05/11/08","16:17:39",9774.000,"cc",28310.170,6,0.100,8570.000,0.200,1129.000,0.300,68.000,0.500,7.000,1.000,0,5.000,0
"05/11/08","16:17:45",8183.000,"cc",28348.588,6,0.100,7133.000,0.200,953.000,0.300,84.000,0.500,13.000,1.000,0,5.000,0
"05/11/08","16:17:51",10416.000,"cc",28369.346,6,0.100,9119.000,0.200,1218.000,0.300,69.000,0.500,10.000,1.000,0,5.000,0
"05/11/08","16:17:57",12784.000,"cc",28316.785,6,0.100,11193.000,0.200,1507.000,0.300,78.000,0.500,6.000,1.000,0,5.000,0
"05/11/08","16:18:03",9556.000,"cc",28316.348,6,0.100,8364.000,0.200,1132.000,0.300,49.000,0.500,10.000,1.000,1.000,5.000,0
"05/11/08","16:18:09",10846.000,"cc",28315.934,6,0.100,9509.000,0.200,1256.000,0.300,71.000,0.500,10.000,1.000,0,5.000,0
"05/11/08","16:18:15",8896.000,"cc",28340.904,6,0.100,7787.000,0.200,1037.000,0.300,57.000,0.500,14.000,1.000,1.000,5.000,0